This is the latest recevied weather packets stored in our database for station/object DL9GRB-13. If no packets are shown the sender has not sent any weather packets the latest 10 day(s).
| Time | Temp. | Humidity | Pressure | Rain* | Wind** | Luminosity | Snow |
|---|---|---|---|---|---|---|---|
| 1777180444 | 6.11° C | 65% | 1021.8 hPa | 0 mm | - | 58 W/m² | - |
| 1777180265 | 6.11° C | 65% | 1021.7 hPa | 0 mm | - | 30 W/m² | - |
| 1777180084 | 6.11° C | 64% | 1021.7 hPa | 0 mm | - | 28 W/m² | - |
| 1777179905 | 6.11° C | 63% | 1021.6 hPa | 0 mm | - | 27 W/m² | - |
| 1777179724 | 6.11° C | 63% | 1021.6 hPa | 0 mm | - | 36 W/m² | - |
| 1777179545 | 6.11° C | 63% | 1021.5 hPa | 0 mm | - | 48 W/m² | - |
| 1777179365 | 6.11° C | 63% | 1021.6 hPa | 0 mm | - | 49 W/m² | - |
| 1777179185 | 6.11° C | 63% | 1021.2 hPa | 0 mm | - | 47 W/m² | - |
| 1777179004 | 5.56° C | 65% | 1021.3 hPa | 0 mm | - | 45 W/m² | - |
| 1777178825 | 5.56° C | 67% | 1021.3 hPa | 0 mm | - | 43 W/m² | - |
| 1777178645 | 5.56° C | 67% | 1021.2 hPa | 0 mm | - | 22 W/m² | - |
| 1777178465 | 5.56° C | 69% | 1021.1 hPa | 0 mm | - | 21 W/m² | - |
| 1777178284 | 5.56° C | 73% | 1021 hPa | 0 mm | - | 20 W/m² | - |
| 1777178104 | 5.56° C | 74% | 1021 hPa | 0 mm | - | 19 W/m² | - |
| 1777177924 | 5.56° C | 75% | 1021.1 hPa | 0 mm | - | 18 W/m² | - |
| 1777177744 | 5.56° C | 76% | 1020.9 hPa | 0 mm | - | 17 W/m² | - |
| 1777177564 | 5.56° C | 77% | 1020.9 hPa | 0 mm | - | 16 W/m² | - |
| 1777177384 | 5.56° C | 79% | 1020.8 hPa | 0 mm | - | 15 W/m² | - |
| 1777177204 | 5.56° C | 79% | 1020.7 hPa | 0 mm | - | 14 W/m² | - |
| 1777177025 | 5.56° C | 81% | 1020.8 hPa | 0 mm | - | 13 W/m² | - |
| 1777176844 | 5° C | 82% | 1020.6 hPa | 0 mm | - | 12 W/m² | - |
| 1777176664 | 5° C | 85% | 1020.5 hPa | 0 mm | - | 11 W/m² | - |
| 1777176484 | 5° C | 86% | 1020.5 hPa | 0 mm | - | 10 W/m² | - |
| 1777176305 | 5° C | 87% | 1020.6 hPa | 0 mm | - | 9 W/m² | - |
| 1777176125 | 5° C | 87% | 1020.6 hPa | 0 mm | - | 8 W/m² | - |
* Rain latest hour (hover to see other rain measurements)
** Current wind speed in m/s (hover to see current wind gust speed)